Время (UTC), дата Ветер
(°,м/с) 
Видим.   Явления Облачность Т
(°С)
Тd
(°С)
f(%) Тe
(°С)
Pmin
(гПа)
dP
(гПа)
Po
(мм)
O2
(г/м3)
Тmin Tmax R s Состояние
почвы
00 01.12.15 340 (С) 0600 м  слаб. морось{туман}  ?/?  
+5.4 +4.6 95 +5  1016.2  -0.6  721  284           
03 01.12.15 340 (С) 4000 м  слаб. дождь{морось}  10/10 600 м 
[Sc]
+4.1 +3.4 95 +2  1016.5  -0.1  721  286  +4.1       
06 01.12.15 190 (Ю) 20000 м  слаб. ливневой дождь  10/8 600 м кучево-дожд., средняя 
[Cb cap|Ac und]
+3.4 +2.3 92 +3  1017.2  0.6  722  287  +3.4         
09 01.12.15 230 (ЮЗ) 20000 м  {ливн. осадки}  8/5 300 м кучево-дожд., средняя 
[Cb calv|Ac trans]
+6.4 +3.7 83 +5  1016.3  -0.2  722  283           
12 01.12.15 280 (З) 6-10{13}  20000 м  {ливн. осадки}  5/5 600 м кучево-дожд. 
[Cb calv]
+8.1 +2.3 67 +6  1014.9  -1.1  721  282           
15 01.12.15 290 (З) 5{10}  20000 м  слаб. ливневой дождь  10/6 600 м кучево-дожд., средняя 
[Cb cap|Ac und]
+5.7 +2.7 81 +4  1015.7  0.3  721  284    +8.9     
18 01.12.15 250 (З) 20000 м  {ливн. осадки}  10/6 600 м кучево-дожд., средняя 
[Cb calv|Ac und]
+4.9 +2.8 86 +4  1015.7  0.1  721  285           
21 01.12.15 150 (ЮВ) 20000 м    9/4 1000 м средняя 
[Sc diur, vesp|Ac trans]
+3.9 +2.1 88 +2  1013.4  -2.3  719  285           
00 02.12.15 140 (ЮВ) 20000 м    10/0 средняя, верхняя 
[Ac trans|Ci fib]
+4.1 +0.6 78 +2  1010.6  -2.6  717  285    -0.3       
03 02.12.15 160 (Ю) 6-10{10}  20000 м    8/0 средняя, верхняя 
[Ac trans|Ci fib]
+4.3 -1.3 67 +2  1007.7  -2.8  715  284  +3.3    0.0     
06 02.12.15 160 (Ю) 6{13}  20000 м    8/3 600 м кучево-дожд., средняя 
[Cb calv|Ac trans]
+5.1 -0.1 69 +3  1005.8  -1.5  714  282           
09 02.12.15 280 (З) 7-10{12}  10 км  слаб. ливневой снег  10/8 200 м кучево-дожд., средняя 
[Cb cap|Ac und]
+0.9 -0.6 90 -3  1010.2  3.3  716  288           
12 02.12.15 270 (З) 9-13{14}  20000 м  в посл. час ливневой снег  10/6 300 м кучево-дожд., средняя 
[Cb calv|Ac und]
+0.4 -0.4 94 -4  1011.7  1.3  717  289           
15 02.12.15 260 (З) 6{14}  20000 м    10/6 300 м кучево-дожд., средняя 
[Cb calv|Ac und]
+0.7 -1.5 85 -3  1013.7  719  289    +6.2     
18 02.12.15 270 (З) 6{11}  20000 м    10/8 300 м кучево-дожд., средняя 
[Cb calv|Ac und]
+0.3 -1.9 85 -3  1015.4  1.5  720  290           
21 02.12.15 270 (З) 6{11}  20000 м    10/4 600 м средняя 
[Sc diur, vesp|Ac und]
-0.5 -2.5 86 -4  1017.5  1.8  721  291           
00 03.12.15 270 (З) 20000 м    10/6 300 м средняя 
[St|Ac und]
-0.3 -2.2 87 -3  1018.9  1.4  722  292           
03 03.12.15 240 (ЮЗ) 20000 м    10/4 600 м средняя 
[Sc diur, vesp|Ac und]
-0.8 -2.7 87 -3  1019.7  0.7  723  292  -1.2         
06 03.12.15 250 (З) 20000 м    3/0 средняя 
[Ac trans]
-0 -4 74 -2  1020.8  1.1  724  292  -2.6         
09 03.12.15 280 (З) 20000 м    6/6 600 м 
[Sc]
+0.3 -3.3 77 -3  1021  0.3  724  292           
12 03.12.15 260 (З) 20000 м    9/9 600 м 
[Sc]
+1.2 -3 74 -1  1021.5  0.3  725  291           
15 03.12.15 260 (З) 20000 м    8/1 600 м кучево-дожд., средняя 
[Cb calv|Ac trans]
-1.2 -3.5 84 -2  1023.3  1.2  725  294    +2.6       
18 03.12.15 240 (ЮЗ) 20000 м  {ливн. осадки}  3/3 600 м 
[Sc]
-2.1 -4.8 82 -4  1024.4  0.9  726  295           
21 03.12.15 230 (ЮЗ) 20000 м    3/1 600 м средняя 
[Sc|Ac trans]
-3.7 -5.9 85 -6  1025.5  0.7  727  297           
00 04.12.15 060 (СВ) 20000 м    1/0 средняя 
[Ac trans]
-4.1 -5.8 88 -5  1027  1.3  728  298           
03 04.12.15 190 (Ю) 20000 м    1/0 средняя 
[Ac trans]
-4.8 -5.8 93 -4  1029  1.7  729  300  -4.9    0.0     
06 04.12.15 010 (С) 20000 м    5/3 300 м верхняя 
[Sc|Ci fib]
-0.8 -2.9 86 1030.6  2.4  731  296  -5.7         
09 04.12.15 040 (СВ) 4000 м  дымка  10/10 300 м 
[St]
-1.2 -2.5 91 -4  1033  2.1  732  297           
12 04.12.15 010 (С) 20000 м  {туман}  8/8 300 м 
[St]
-0.2 -3.2 80 -1  1034.4  1.5  733  296           
15 04.12.15 340 (С) 4000 м  дымка  10/10 100 м 
[St]
-1.8 -2.9 92 -3  1036.4  1.5  735  298    +0.3       
18 04.12.15 250 (З) 10 км    10/3 300 м средняя 
[St|Ac und]
-2.6 -3.4 94 -2  1037.5  0.9  735  299           
21 04.12.15 350 (С) 0100 м  туман  ?/?  
-2.9 -3.7 94 -2  1038.4  0.8  736  300           
00 05.12.15 200 (Ю) 0100 м  переохл. туман [диам. изморози 1 мм]  ?/?  
-3.8 -4.7 93 -5  1037.9  -0.6  735  301           
03 05.12.15 010 (С) 5000 м  дымка{туман} [диам. изморози 1 мм]  6/6 300 м 
[St]
-6 -7.1 92 -9  1038.1  -0.3  735  304  -7.7         
06 05.12.15 210 (ЮЗ) 20000 м  в посл. час туман [диам. изморози 3 мм]  3/0 верхняя 
[Ci sp]
-3.2 -4.2 93 -5  1037.1  -0.4  735  300  -8.4         
09 05.12.15 150 (ЮВ) 20000 м    3/0 верхняя 
[Ci sp]
+4.1 -2.3 63 +4  1033.8  -1.6  734  291           
12 05.12.15 270 (З) 20000 м    9/0 средняя, верхняя 
[Ac trans|Cs]
+1.5 -3.5 69 -1  1033.7  -0.6  733  294           
15 05.12.15 270 (З) 8-11{14}  20000 м    8/0 средняя, верхняя 
[Ac As|Ci]
+0.8 -4.1 70 -3  1033.4  -0.4  733  295    +6.4       
18 05.12.15 290 (З) 6{13}  20000 м    9/0 средняя, верхняя 
[Ac trans|Ci fib]
+0.3 -5 68 -3  1033.2  -0.3  733  295           
21 05.12.15 280 (З) 7-11{11}  20000 м    8/5 600 м средняя 
[Sc|Ac As]
+0.7 -2.6 79 -3  1032.4  -0.7  732  295           
00 06.12.15 270 (З) 9-14{14}  20000 м    10/4 600 м средняя 
[Sc|Ac und]
+2 -2.7 71 -2  1031.4  -0.7  732  293           
03 06.12.15 270 (З) 9-12{14}  20000 м    10/6 600 м средняя 
[Sc|Ac und]
+3.1 -2.5 67 -1  1030.4  -0.7  731  292  -0.5         
06 06.12.15 260 (З) 8-13{14}  20000 м    10/6 600 м средняя 
[Sc|Ac und]
+3.3 -1.4 71 1030.3  -0.1  731  291           
09 06.12.15 270 (З) 10-15{17}  10 км  слаб. морось  10/10 300 м 
[St]
+3.1 +1.1 87 -1  1029.9  -0.4  731  291           
12 06.12.15 260 (З) 9-15{19}  20000 м  {морось}  10/8 300 м средняя 
[Sc|Ac und]
+4.4 +0.8 77 +1  1029  -0.6  730  289           
15 06.12.15 270 (З) 12-15{19}  20000 м    10/3 300 м средняя 
[Sc|Ac und]
+4.5 +1.2 79 1029.2  0.2  730  289    +4.5  0.0     
18 06.12.15 250 (З) 11-16{20}  20000 м  в посл. час ливневой дождь  10/8 300 м кучево-дожд., средняя 
[Cb calv|Ac und]
+4.2 +2.5 89 1029  -0.2  730  289           
21 06.12.15 250 (З) 13-18{21}  20000 м    10/8 600 м кучево-дожд., средняя 
[Cb calv|Ac und]
+5.2 +2 80 +1  1028.1  -0.7  730  288           
00 07.12.15 260 (З) 13-18{20}  20000 м    10/3 600 м средняя 
[Sc|Ac und]
+6.2 +1.2 70 +2  1027.9  730  287           
03 07.12.15 250 (З) 12-17{19}  20000 м    10/4 600 м средняя 
[Sc|Ac und]
+6.1 +2.4 77 +2  1027.4  -0.5  729  287  +4.2    0.0     
06 07.12.15 250 (З) 13-20{20}  20000 м    9/3 600 м средняя 
[Sc|Ac trans]
+6.1 +2.6 78 +2  1026.8  -0.6  729  287           
09 07.12.15 280 (З) 14-20{23}  20000 м    8/3 300 м средняя 
[St|Ac trans]
+7.7 +3.2 73 +4  1025.7  -0.7  728  285           
12 07.12.15 270 (З) 13-18{23}  20000 м    4/3 300 м верхняя 
[St|Ci fib]
+8.5 +2.9 68 +5  1025.8  0.2  729  284           
15 07.12.15 260 (З) 14-21{22}  20000 м    5/5 600 м 
[Sc]
+6.9 +2.4 73 +3  1025.1  -0.9  728  286    +8.8       
18 07.12.15 270 (З) 14-20{23}  20000 м    ясно 
+6.2 +2.2 76 +2  1023.8  -1.4  727  286           
21 07.12.15 270 (З) 13-21{24}  20000 м    4/4 300 м 
[St]
+6.1 +3.2 82 +2  1025.5  1.6  728  286           
00 08.12.15 280 (З) 11-19{21}  20000 м    8/8 300 м 
[St]
+5.7 +3.1 83 +2  1026.4  0.8  729  287           
03 08.12.15 280 (З) 11-15{19}  4000 м  дымка{дождь}  10/10 300 м 
[Ns]
+4.8 +3.5 91 +1  1026.6  729  288  +4.7    0.3     
06 08.12.15 280 (З) 10-17{18}  10 км  {дождь}  9/9 300 м 
[St]
+4.8 +3.2 89 +1  1027.5  0.8  729  288           
09 08.12.15 280 (З) 10-15{18}  20000 м    10/6 400 м средняя 
[St|Ac und]
+5.2 +2.3 82 +2  1027.2  0.8  729  288           
12 08.12.15 280 (З) 10-15{19}  20000 м    8/8 600 м 
[Sc]
+5.7 +0.5 69 +2  1026.8  -0.4  729  288           
15 08.12.15 280 (З) 9-14{17}  20000 м    ясно 480 м 
+3.9 +0.4 78 1029.3  730  290    +6.8       
18 08.12.15 260 (З) 11-16{16}  20000 м    4/4 300 м 
[St]
+2.6 -0.1 82 -2  1029.9  0.4  731  292           
21 08.12.15 280 (З) 8-11{16}  20000 м    8/8 300 м 
[St]
+1.3 -1.3 83 -3  1031.7  1.4  732  294           
00 09.12.15 290 (З) 5{12}  20000 м    8/8 400 м 
[St]
+0.8 -1.9 82 -2  1033.6  1.6  733  295           
03 09.12.15 270 (З) 20000 м    ясно 
-0.1 -2.5 84 -3  1035.5  1.6  734  296  -0.1         
06 09.12.15 320 (СЗ) 20000 м    5/5 300 м 
[St]
-0.1 -2.1 86 -3  1037.2  1.6  735  297  -1.1         
09 09.12.15 330 (СЗ) 20000 м    5/5 300 м 
[Sc]
+2.1 -3.3 67 +1  1036.9  0.1  736  294           
12 09.12.15 360 (С) 20000 м    3/3 600 м 
[Sc]
+2 -6 55 1036.8  -0.1  735  295           
15 09.12.15 050 (СВ) 20000 м    4/0 верхняя 
[Ci fib]
-1.5 -6 71 -2  1038.5  0.9  736  299    +2.8       
18 09.12.15 100 (В) 20000 м    ясно 
-4.6 -6.3 88 -8  1038.7  -0.5  736  302           
21 09.12.15 090 (В) 20000 м    ясно 
-5.6 -7.4 87 -9  1037.9  -0.9  735  303           
00 10.12.15 110 (В) 20000 м    ясно 
-4.9 -6.4 89 -8  1036.6  -1.1  734  302           
03 10.12.15 110 (В) 20000 м    ясно 
-5.4 -6.9 89 -9  1035.4  -1.3  733  302  -5.7         
06 10.12.15 130 (ЮВ) 20000 м    4/0 верхняя 
[Ci fib]
-3.5 -5.9 83 -6  1034.2  -0.6  733  300           
09 10.12.15 120 (ЮВ) 9-12{12}  20000 м    3/0 верхняя 
[Ci fib]
+2.3 -4.7 60 -2  1031  -1.9  731  293           
12 10.12.15 110 (В) 5{12}  20000 м    3/0 верхняя 
[Ci fib]
+2.5 -7.6 47 1030  -1  731  292           
15 10.12.15 110 (В) 20000 м    4/0 верхняя 
[Ci fib]
-2.9 -6.6 76 -6  1031.5  0.4  731  298    +3.7       
18 10.12.15 120 (ЮВ) 20000 м    3/0 верхняя 
[Ci fib]
-2.7 -5.5 81 -6  1030.8  -0.6  731  298           
21 10.12.15 120 (ЮВ) 20000 м    4/0 верхняя 
[Ci fib]
-2.4 -4.3 87 -6  1030.4  -0.3  730  297           
00 11.12.15 120 (ЮВ) 20000 м    3/0 верхняя 
[Ci fib]
-3.3 -4.5 91 -6  1030.1  -0.4  730  298           
03 11.12.15 120 (ЮВ) 20000 м    3/0 верхняя 
[Ci fib]
-3.5 -4.7 91 -6  1030.5  0.3  730  298  -3.7         
06 11.12.15 120 (ЮВ) 20000 м    8/0 верхняя 
[Ci]
-1.9 -3 92 -3  1030.7  0.5  731  297  -3.9         
09 11.12.15 110 (В) 20000 м    8/3 200 м верхняя 
[St|Ci]
+1.7 -0.3 87 -1  1028.8  -1  730  292           
12 11.12.15 110 (В) 20000 м    8/3 300 м верхняя 
[Sc|Ci fib]
+3.8 +0.7 80 +1  1027  -1.3  729  289           
15 11.12.15 100 (В) 0300 м  туман  ?/?  
+1.6 +0.7 94 -1  1027.4  729  292    +4.5       
18 11.12.15 130 (ЮВ) 0200 м  туман  ?/?  
+1.5 +0.7 94 -1  1026.8  -0.6  728  292           
21 11.12.15 140 (ЮВ) 0200 м  туман  ?/?  
+1.5 +0.7 94 +1  1025.7  -1  728  291           
00 12.12.15 190 (Ю) 0200 м  туман{морось}  ?/?  
+1 +0.3 95 1024.9  -0.9  727  292           
03 12.12.15 140 (ЮВ) 0200 м  туман  ?/?  
-0.7 -1.4 95 -2  1024.4  -0.8  726  293  -0.7    0.1     
06 12.12.15 190 (Ю) 20000 м  {туман} [диам. гололёда 0 мм]  6/0 верхняя 
[Ci fib]
-0.1 -0.8 95 -1  1024.7  0.4  727  293  -2.4         
09 12.12.15 290 (З) 20000 м    10/10 300 м 
[Sc]
+4.5 +1.7 82 +4  1022.9  -0.8  726  287           
12 12.12.15 350 (С) 20000 м    8/8 600 м 
[Sc]
+5.5 +1.3 74 +5  1021.6  -1.1  725  286           
15 12.12.15 150 (ЮВ) 20000 м    10/10 600 м 
[Sc]
+3.1 +0.6 84 +3  1022.3  -1.1  725  289    +5.9       
18 12.12.15 190 (Ю) 20000 м    10/10 600 м 
[Sc]
+3.8 +0.8 81 +3  1021.4  -0.7  725  288           
21 12.12.15 240 (ЮЗ) 10 км  слаб. дождь  10/10 300 м 
[Ns]
+4.3 +2.8 90 +3  1020.7  -0.5  724  287           
00 13.12.15 260 (З) 20000 м  слаб. дождь  10/10 300 м 
[Ns]
+4.2 +2.6 89 +2  1020.3  -0.4  724  287           
03 13.12.15 290 (З) 5{10}  20000 м  {дождь}  10/6 180 м средняя 
[St|Ac und]
+3.2 +1.7 90 +1  1020.5  724  288  +2.8    0.6     
06 13.12.15 260 (З) 6-10{10}  3000 м  дымка{дождь, морось}  10/10 200 м 
[St]
+0.9 +0.1 94 -2  1022.1  725  291  +0.9         
09 13.12.15 270 (З) 7-10{11}  10 км    10/8 300 м средняя 
[St|Ac und]
+1 -0.8 88 -3  1022.7  0.5  725  291           
12 13.12.15 270 (З) 6{10}  10 км    10/8 200 м средняя 
[St|Ac und]
+1 -0.7 88 -2  1023.4  0.7  726  291           
15 13.12.15 270 (З) 10 км  {снег, дождь}  10/8 300 м средняя 
[Sc|Ac und]
+0.8 -0.7 90 -2  1025.3  1.7  727  292    +3.1  0.0     
18 13.12.15 240 (ЮЗ) 10 км  {снег, дождь}  6/4 600 м средняя 
[Sc|Ac trans]
-1.3 -2.7 90 -3  1026.5  0.8  728  295           
21 13.12.15 230 (ЮЗ) 20000 м    5/0 кучево-дожд. 
[Cb calv]
-2.6 -4 90 -5  1026.7  0.1  728  296           
00 14.12.15 210 (ЮЗ) 10 км    3/0 средняя 
[Ac trans]
-1.7 -2.7 93 -1  1026.2  -0.2  727  295           
03 14.12.15 120 (ЮВ) 10 км    8/0 средняя 
[Ac trans]
-0.3 -1.5 92 -2  1025.2  -0.7  727  293  -3.5         
06 14.12.15 170 (Ю) 20000 м    9/4 1000 м средняя 
[Sc|Ac trans]
+1.4 -0.6 87 1024.2  -0.7  726  291           
09 14.12.15 130 (ЮВ) 20000 м    9/3 1000 м средняя 
[Sc diur, vesp|Ac trans]
+4.1 +0.9 80 +2  1021.7  -1.8  725  288           
12 14.12.15 170 (Ю) 20000 м    10/3 1000 м средняя 
[Sc|Ac und]
+4.6 -0.4 70 +2  1020.6  -1  724  287           
15 14.12.15 180 (Ю) 20000 м    10/6 1000 м средняя 
[Sc|Ac und]
+3.5 -0.1 77 +3  1020.4  -0.4  724  288    +5.4       
18 14.12.15 140 (ЮВ) 20000 м    10/5 1000 м средняя 
[Sc diur, vesp|Ac und]
+3.5 -0.3 76 +2  1019.2  -1.1  723  288           
21 14.12.15 250 (З) 10 км  слаб. ливневой дождь  10/8 600 м кучево-дожд., средняя 
[Cb cap|Ac und]
+2.7 +0.5 85 +2  1019.7  0.3  723  288           
00 15.12.15 250 (З) 5{10}  3000 м  слаб. ливневой снег  10/8 100 м кучево-дожд., средняя 
[Cb cap|Ac und]
-0.1 -0.9 94 -3  1021.4  1.1  724  292           
03 15.12.15 260 (З) 10-16{16}  20000 м  в посл. час ливневой снег  10/5 300 м кучево-дожд., средняя 
[Cb calv|Ac und]
-0.1 -1.8 88 -5  1021.4  724  292  -0.3    равномерный
мокрый или
старый снег
100% 
06 15.12.15 280 (З) 13-18{21}  20000 м  {ливн. осадки}  8/6 300 м кучево-дожд., средняя 
[Cb cap|Ac As]
+0.1 -2.3 84 -6  1022.3  0.9  725  292  -0.3         
09 15.12.15 280 (З) 12-19{22}  10 км    10/6 600 м кучево-дожд., средняя 
[Cb cap|Ac und]
+0.1 -3.6 76 -5  1023.1  0.7  725  293           
12 15.12.15 280 (З) 9-13{21}  20000 м  {ливн. осадки}  10/8 600 м кучево-дожд., средняя 
[Cb cap|Ac und]
-0.4 -3.9 77 -5  1025.4  2.1  727  294           
15 15.12.15 280 (З) 8-14{17}  20000 м    10/5 300 м средняя 
[Sc|Ac und]
-0.6 -3.6 80 -5  1026.8  1.3  728  294    +0.4  0.0     
18 15.12.15 300 (СЗ) 6{14}  20000 м    8/8 600 м 
[Sc diur, vesp]
-1.2 -4.5 78 -5  1027.3  0.4  728  295           
21 15.12.15 300 (СЗ) 20000 м    10/5 300 м средняя 
[St|Ac und]
-1.5 -4.1 82 -5  1027.2  -0.2  728  295           
00 16.12.15 280 (З) 20000 м    10/10 300 м 
[St]
-1.5 -3.8 84 -5  1027.6  0.4  728  295           
03 16.12.15 290 (З) 5{10}  20000 м    6/6 600 м 
[Sc]
-2.7 -4.3 89 -6  1028.4  0.4  729  297  -2.7      мокрый или
старый снег
50-90% 
06 16.12.15 280 (З) 20000 м    5/3 300 м средняя, верхняя 
[Sc|Ac trans|Ci fib]
-2.9 -4.9 86 -6  1029.6  730  298  -3.1         
09 16.12.15 290 (З) 20000 м    6/3 300 м средняя 
[Sc|Ac trans]
-0.8 -4.9 74 -3  1029.2  0.1  730  295           
12 16.12.15 300 (СЗ) 20000 м    9/8 600 м средняя 
[Sc|Ac trans]
-1.3 -5.5 73 -4  1029.6  0.3  730  296           
15 16.12.15 300 (СЗ) 20000 м    8/6 600 м средняя 
[Sc|Ac trans]
-1.8 -7.1 67 -5  1029.6  731  297    -0.2       
18 16.12.15 290 (З) 20000 м    3/0 средняя 
[Ac trans]
-4 -8.7 70 -5  1032.3  0.9  731  300           
21 16.12.15 260 (З) 20000 м    ясно 
-7.2 -9.7 82 -10  1032.9  0.1  731  304           
00 17.12.15 250 (З) 20000 м    1/0 средняя 
[Ac trans]
-7.2 -8.3 92 -11  1032.4  -0.4  731  303           
03 17.12.15 280 (З) 20000 м    ясно 
-5.7 -8.1 83 -8  1031.6  -0.5  731  301  -7.8      <0.5  мокрый или
старый снег
50-90% 
06 17.12.15 270 (З) 20000 м    ясно 
-3.8 -7.1 78 -8  1031.5  0.3  731  299           
09 17.12.15 250 (З) 8-12{12}  20000 м    ясно 
-1.4 -6.8 67 -6  1029.9  -1  730  296           
12 17.12.15 270 (З) 9-13{13}  20000 м    ясно 
-0.7 -7.7 59 -5  1029  -0.7  730  295           
15 17.12.15 270 (З) 6{13}  20000 м    ясно 
-2.9 -8 68 -7  1030.4  0.9  730  298    -0.5       
18 17.12.15 270 (З) 7-10{11}  20000 м    ясно 
-2.7 -9.7 59 -7  1030.6  0.2  730  298           
21 17.12.15 280 (З) 5{10}  20000 м    ясно 
-3.4 -9 65 -7  1030.5  -0.2  730  299           
00 18.12.15 280 (З) 10 км    ясно 
-4.3 -5.8 89 -8  1030.6  0.1  730  299           
03 18.12.15 260 (З) 20000 м    ясно 
-5.5 -6.7 91 -9  1030.1  -0.8  730  301  -6.7      <0.5  мокрый или
старый снег
50-90% 
06 18.12.15 тихо ()   20000 м    4/0 верхняя 
[Ci fib]
-3.7 -7.7 74 -4  1029.6  0.1  729  299           
09 18.12.15 270 (З) 20000 м    9/0 верхняя 
[Ci fib]
+4.5 -16.4 20 +3  1026.5  -1.3  728  290           
12 18.12.15 270 (З) 20000 м    8/0 верхняя 
[Ci fib]
+2.9 -12.9 30 1025.8  -1  728  291           
15 18.12.15 260 (З) 20000 м    3/0 верхняя 
[Ci fib]
-1.3 -14.9 35 -5  1027.3  0.7  728  296    +4.6       
18 18.12.15 270 (З) 20000 м    3/0 верхняя 
[Ci fib]
-1.5 -12.1 44 -5  1026.7  -0.7  728  296           
21 18.12.15 270 (З) 6{12}  20000 м    3/0 верхняя 
[Ci fib]
-1.9 -4 86 -6  1026.9  0.2  728  296           
00 19.12.15 280 (З) 5{12}  20000 м    8/8 300 м 
[St]
-0.6 -2.4 88 -4  1027.1  0.4  728  294           
03 19.12.15 270 (З) 20000 м    3/3 300 м 
[St]
-1.7 -3.3 89 -4  1027.4  728  296  -2.5      <0.5  мокрый или
старый снег
10-40% 
06 19.12.15 260 (З) 20000 м    5/5 600 м 
[Sc diur, vesp]
+0 -3.1 80 -2  1028  729  294           
09 19.12.15 270 (З) 8-11{12}  20000 м    6/6 600 м 
[Sc diur, vesp]
+3.8 -1.8 67 1026.8  -0.4  729  290           
12 19.12.15 280 (З) 6-11{13}  20000 м    4/1 1000 м средняя 
[Sc diur, vesp|Ac trans]
+4.5 -1.7 64 +2  1026.4  -0.3  728  289           
15 19.12.15 270 (З) 6{11}  20000 м    6/1 1000 м средняя 
[Sc|Ac trans]
+2.5 -2.2 71 1026.9  0.2  729  291    +5       
18 19.12.15 250 (З) 20000 м    1/0 средняя 
[Ac trans]
+1.6 -1.8 78 -1  1026.6  -0.5  728  292           
21 19.12.15 260 (З) 6{10}  20000 м    6/3 1000 м средняя 
[Sc|Ac trans]
+2.6 -2.2 71 1025.1  -1.3  727  290           
00 20.12.15 270 (З) 7-11{12}  20000 м    5/3 600 м средняя 
[Sc|Ac trans]
+2.9 -1.6 72 1023.9  -1  726  290           
03 20.12.15 270 (З) 12-18{20}  20000 м    8/3 600 м кучево-дожд., средняя 
[Cb cap|Ac trans]
+3.4 +0.3 80 -1  1022.4  -1.3  725  289  +1.3         
06 20.12.15 280 (З) 12-18{19}  20000 м  слаб. ливневой дождь  10/6 600 м кучево-дожд., средняя 
[Cb cap|Ac und]
+3.3 +0.7 83 -1  1022.4  725  289           
09 20.12.15 270 (З) 12-17{19}  4000 м  слаб. ливневой дождь  10/6 300 м кучево-дожд., средняя 
[Cb cap|Ac und]
+3.5 +1.9 89 -1  1021.6  -0.8  725  288           
12 20.12.15 270 (З) 13-19{21}  3000 м  слаб. ливневой дождь  10/8 200 м кучево-дожд., средняя 
[Cb cap|Ac und]
+4.1 +2.8 91 1020.9  -0.5  725  287           
15 20.12.15 280 (З) 11-18{19}  10 км  слаб. ливневой дождь  10/8 200 м кучево-дожд., средняя 
[Cb cap|Ac und]
+4.4 +3.3 93 1022.7  1.8  726  287    +4.4     
18 20.12.15 270 (З) 10-15{18}  10 км  слаб. ливневой дождь  10/8 180 м кучево-дожд., средняя 
[Cb cap|Ac und]
+4.5 +3.5 93 +1  1023.9  1.2  727  287           
21 20.12.15 280 (З) 9-14{16}  3000 м  морось{ливн. осадки}  10/10 100 м 
[St]
+4.2 +3.4 95 +1  1024.9  0.9  727  288           
00 21.12.15 280 (З) 8-12{14}  3000 м  морось{ливн. осадки}  10/10 200 м 
[St]
+3.7 +2.6 92 1025.1  0.1  728  289           
03 21.12.15 280 (З) 8-12{13}  1500 м  морось  10/10 180 м 
[St]
+3.8 +2.7 93 1025  0.1  727  289  +3.6       
06 21.12.15 280 (З) 10-15{16}  1500 м  морось  10/10 200 м 
[St]
+3.8 +2.8 93 1026  0.9  728  289           
09 21.12.15 270 (З) 14-19{21}  0800 м  туман{морось}  ?/?  
+4.7 +3.9 95 1024.4  -1.4  727  287           
12 21.12.15 270 (З) 12-17{21}  4000 м  слаб. дождь{туман}  10/10 300 м 
[Ns]
+6.2 +5 92 +2  1024.3  0.3  727  286           
15 21.12.15 270 (З) 12-18{20}  4000 м  дымка{дождь}  10/10 200 м 
[St]
+6.7 +5.7 93 +3  1025.2  0.9  728  285    +6.7     
18 21.12.15 260 (З) 11-16{21}  20000 м  {дождь}  6/0 средняя 
[Ac trans]
+7 +4.5 84 +4  1025.9  0.7  728  285           
21 21.12.15 260 (З) 10-15{19}  20000 м    9/3 1000 м средняя 
[Sc|Ac trans]
+7.8 +4.2 78 +5  1026.2  0.5  729  285           
00 22.12.15 270 (З) 9-13{16}  20000 м    6/0 средняя 
[Ac trans]
+7.5 +3.9 78 +5  1025.4  0.5  728  285           
03 22.12.15 260 (З) 9-12{15}  20000 м    8/4 300 м средняя 
[St|Ac trans]
+6.4 +5 91 +3  1025  -0.5  728  286  +6.4         
06 22.12.15 250 (З) 8-12{14}  20000 м    4/3 300 м средняя 
[St|Ac trans]
+7.2 +5 86 +5  1024.4  -0.5  727  285           
09 22.12.15 260 (З) 10-13{16}  20000 м    6/6 300 м 
[St]
+8.5 +5.1 79 +6  1022.6  -1.4  726  283           
12 22.12.15 270 (З) 12-18{19}  20000 м    3/1 600 м верхняя 
[Sc|Ci fib]
+10.2 +4.2 66 +7  1019.8  -2.3  725  281           
15 22.12.15 270 (З) 11-14{20}  20000 м    ясно 
+7.7 +3.5 75 +4  1020.1  -0.2  725  283    +10.6       
18 22.12.15 260 (З) 7-11{16}  20000 м    ясно 
+7.2 +2.9 74 +5  1019.2  -1  724  284           
21 22.12.15 270 (З) 10-17{17}  20000 м    3/3 600 м 
[Sc]
+6.6 +3.1 78 +3  1017.6  -1.6  723  284           
00 23.12.15 270 (З) 15-23{25}  3000 м  ливневой дождь  10/8 300 м кучево-дожд., средняя 
[Cb cap|Ac und]
+6.1 +4.4 89 +2  1019.2  1.4  724  284           
03 23.12.15 270 (З) 11-15{23}  20000 м  в посл. час ливневой дождь  10/5 600 м кучево-дожд., средняя 
[Cb calv|Ac und]
+4.3 +2.2 86 1019.8  0.2  724  287  +4.3       
06 23.12.15 270 (З) 10-16{17}  20000 м  {ливн. осадки}  6/6 300 м 
[St]
+3.8 +1.7 86 1022  725  288  +3.5         
09 23.12.15 270 (З) 9-14{19}  10 км  слаб. ливневой дождь  10/6 300 м кучево-дожд., средняя 
[Cb cap|Ac und]
+4 +2 87 1023.5  1.4  726  288           
12 23.12.15 270 (З) 11-15{17}  20000 м  {ливн. осадки}  10/5 600 м кучево-дожд., средняя 
[Cb cap|Ac und]
+5.4 +1.5 76 +2  1023.4  0.2  726  287           
15 23.12.15 270 (З) 8-12{15}  20000 м    10/6 600 м средняя 
[Sc|Ac und]
+5.2 -0.1 69 +2  1024.9  1.4  728  288    +5.6  0.3     
18 23.12.15 270 (З) 8-11{12}  20000 м    8/8 600 м 
[Sc]
+4.3 +0.5 76 +1  1026  0.9  728  289           
21 23.12.15 270 (З) 9-12{13}  20000 м    8/4 600 м средняя 
[Sc|Ac und]
+3.4 -0.2 77 1025.6  -0.6  728  290           
00 24.12.15 270 (З) 12-19{20}  20000 м    10/3 600 м средняя 
[Sc|Ac und]
+4.9 +1 76 +1  1024.1  -1  727  288           
03 24.12.15 270 (З) 12-18{19}  10 км  слаб. дождь  9/4 600 м средняя 
[Sc|Ac trans]
+5.6 +2.3 79 +2  1023.6  -1  727  287  +3.4    0.0     
06 24.12.15 250 (З) 11-15{18}  4000 м  слаб. дождь  10/6 480 м кучево-дожд., средняя 
[Cb cap|Ac und]
+5.9 +3.5 85 +2  1023.3  -0.2  727  286           
09 24.12.15 260 (З) 12-17{20}  20000 м  {ливн. осадки}  10/6 600 м средняя 
[Sc diur, vesp|Ac und]
+7.8 +3.3 73 +4  1021.8  -1.1  726  284           
12 24.12.15 260 (З) 14-23{23}  20000 м  {ливн. осадки}  8/5 600 м средняя 
[Sc|Ac trans]
+10 +3.1 62 +7  1019.3  -1.9  724  281           
15 24.12.15 280 (З) 15-26{26}  20000 м  слаб. ливневой дождь  10/6 600 м кучево-дожд., средняя 
[Cb cap|Ac und]
+8.1 +4.2 76 +4  1019.9  0.2  724  283    +10.5  0.6     
18 24.12.15 280 (З) 11-15{26}  10 км  слаб. ливневой дождь  10/8 300 м кучево-дожд., средняя 
[Cb cap|Ac und]
+6 +4.6 91 +2  1022.3  1.9  726  285           
21 24.12.15 290 (З) 9-16{18}  20000 м  {ливн. осадки}  10/8 300 м кучево-дожд., средняя 
[Cb calv|Ac und]
+4.5 +2.5 87 +1  1024.3  1.5  727  288           
00 25.12.15 290 (З) 9-13{16}  20000 м  {ливн. осадки}  8/4 300 м средняя 
[St|Ac trans]
+3 +1.3 89 -1  1025.8  1.1  728  290           
03 25.12.15 290 (З) 8-12{13}  20000 м    3/3 300 м 
[St]
+1.5 -0.1 89 -2  1026  0.1  728  292  +1.5       
06 25.12.15 290 (З) 10-15{16}  н/о    н/о 
+1.7 -0.6 85 -3  1026.9  0.1  728  292  +1.1         
09 25.12.15 290 (З) 9-12{16}  20000 м    5/5 300 м 
[Sc]
+4 -0.5 72 1027.7  1.2  729  290           
12 25.12.15 270 (З) 10-15{16}  20000 м    4/4 300 м 
[Sc]
+4.6 -0.4 70 +1  1026.5  -1  729  289           
15 25.12.15 270 (З) 8-12{15}  20000 м    3/0 средняя 
[Ac trans]
+2.4 -0.5 81 -1  1027.3  0.2  729  291    +5.1       
18 25.12.15 270 (З) 8-12{13}  20000 м    3/3 300 м 
[St]
+1.8 +0 88 -2  1027.9  0.5  729  292           
21 25.12.15 260 (З) 8-11{12}  20000 м    5/3 300 м верхняя 
[St|Ci fib]
+1.7 +0.1 89 -2  1027.3  -0.6  729  292           
00 26.12.15 270 (З) 7-11{12}  20000 м    8/8 200 м 
[St]
+2.3 +0.7 89 -1  1026.9  -0.3  728  291           
03 26.12.15 260 (З) 10-14{14}  20000 м    10/10 200 м 
[St]
+2.2 +1 92 -2  1025.8  -1  728  291  +1.3         
06 26.12.15 270 (З) 10-13{15}  20000 м    4/4 300 м 
[St]
+2.8 +0.9 87 -1  1025.7  -1  728  290           
09 26.12.15 000 (С) 49-17{18}  20000 м    3/3 300 м верхняя 
[Sc|Ci fib]
+0.2   1023.2  -1.9  726             
12 26.12.15 270 (З) 10-15{17}  20000 м    9/4 1000 м средняя 
[Sc diur, vesp|Ac trans]
+5.1 -0.4 68 +1  1023.9  0.6  727  287           
15 26.12.15 270 (З) 10-15{17}  20000 м    9/4 300 м средняя 
[Sc|Ac trans]
+4.1 +1.2 81 1024.9  0.8  727  288    +5.9       
18 26.12.15 270 (З) 9-14{15}  20000 м    8/3 600 м средняя 
[Sc|Ac trans]
+5.3 +0.8 73 +2  1024.7  0.1  727  287           
21 26.12.15 260 (З) 10-14{17}  20000 м    8/3 1000 м средняя 
[Sc|Ac trans]
+5.4 +0.1 69 +2  1024.1  -0.6  727  287           
00 27.12.15 270 (З) 13-19{20}  20000 м    4/3 600 м средняя 
[Sc|Ac trans]
+4.8 +1.5 79 1022.5  -1.7  726  287           
03 27.12.15 270 (З) 15-21{23}  20000 м    8/0 средняя, верхняя 
[Ac trans|Ci fib]
+6.2 +1.5 72 +2  1020.5  -1.7  725  285  +4.1         
06 27.12.15 260 (З) 14-21{24}  20000 м    10/4 600 м кучево-дожд., средняя 
[Cb calv|Ac und]
+8.4 +0.6 58 +5  1018.4  -1.6  723  283           
09 27.12.15 260 (З) 17-25{27}  20000 м    10/3 600 м средняя 
[Sc diur, vesp|Ac und]
+9.5 +0.7 54 +6  1017.3  -0.8  723  281           
12 27.12.15 260 (З) 16-26{28}  20000 м    10/4 600 м кучево-дожд., средняя 
[Cb calv|Ac und]
+8.7 +1.9 62 +5  1018.1  0.7  723  282           
15 27.12.15 260 (З) 17-23{27}  10 км  слаб. ливневой дождь  10/5 300 м кучево-дожд., средняя 
[Cb cap|Ac und]
+7 +4.1 82 +3  1019.7  1.2  724  284    +9.7  0.0     
18 27.12.15 270 (З) 12-17{26}  4000 м  ливневой дождь  10/8 200 м кучево-дожд., средняя 
[Cb cap|Ac und]
+6.9 +5.5 91 +3  1021.1  1.3  725  284           
21 27.12.15 320 (СЗ) 9-14{21}  10 км  слаб. ливневой дождь  10/8 200 м кучево-дожд., средняя 
[Cb cap|Ac und]
+1.4 +0.3 92 -3  1024.6  2.2  727  291           
00 28.12.15 300 (СЗ) 6-11{14}  20000 м  в посл. час ливневой снег  10/6 300 м кучево-дожд., средняя 
[Cb calv|Ac und]
+1.2 -0.4 89 -2  1026  1.3  728  292           
03 28.12.15 300 (СЗ) 7-11{13}  20000 м  {ливн. осадки}  10/6 300 м средняя 
[St|Ac und]
+0.5 -2.5 80 -3  1027.6  1.4  729  293  +0.4    19     
06 28.12.15 290 (З) 6{13}  20000 м  {ливн. осадки}  10/3 600 м средняя 
[Sc|Ac und]
-0.5 -4.1 77 -4  1029.6  1.6  730  295  -0.5         
09 28.12.15 290 (З) 6-10{11}  20000 м    10/4 300 м средняя 
[Sc|Ac und]
+0.1 -2.9 80 -3  1029.4  730  294           
12 28.12.15 290 (З) 4{10}  10 км  слаб. снег  10/6 300 м средняя 
[Sc|Ac und]
-0 -2.9 81 -2  1028.3  -1  729  294           
15 28.12.15 060 (СВ) 10 км  слаб. дождь{снег}  10/10 300 м 
[Ns]
-0.8 -2.3 90 1026.9  -1.5  728  294    +1  0.6     
18 28.12.15 130 (ЮВ) 0200 м  слаб. переохл. морось (гололёд){туман}  ?/?  
-0.8 -1.6 94 -3  1024.4  -2.4  726  294           
21 28.12.15 180 (Ю) 20000 м  {морось, туман} [диам. гололёда 0 мм]  8/0 средняя 
[Ac trans]
+2 +1.1 94 +1  1020.4  -3.2  724  289           
00 29.12.15 280 (З) 8-13{14}  20000 м  {морось, туман}  8/0 средняя 
[Ac trans]
+6.4 +3.4 81 +4  1018.8  -0.6  723  284           
03 29.12.15 290 (З) 8-15{15}  20000 м    10/5 300 м средняя 
[Sc|Ac und]
+5.8 +4.3 90 +3  1018.1  -0.7  723  284  -1.2       
06 29.12.15 340 (С) 5{15}  0200 м  туман  ?/?  
-0 -0.8 94 -3  1021.4  1.9  724  292           
09 29.12.15 040 (СВ) 10 км  слаб. снег{туман} [диам. гололёда 0 мм]  10/0 средняя 
[As op]
-3.8 -4.6 94 -7    0.7  725  297           
12 29.12.15 070 (В) 10 км  слаб. снег  10/10 100 м 
[Ns]
-3.5 -4.4 93 -6  1022.2  -0.7  724  296           
15 29.12.15 060 (СВ) 3000 м  снег{туман}  10/10 200 м 
[Ns]
-4.3 -5.2 93 -7  1022.5  0.2  724  297    +5.8  0.8     
18 29.12.15 060 (СВ) 3000 м  снег  10/10 100 м 
[Ns]
-5.4 -6.5 92 -10  1022.1  -0.7  724  298           
21 29.12.15 070 (В) 0600 м  сильн. снег{туман}  ?/?  
-6 -7.1 92 -10  1021.4  -0.8  723  299           
00 30.12.15 050 (СВ) 0800 м  сильн. снег{туман}  ?/?  
-7 -8.2 91 -11  1021.7  0.1  723  300           
03 30.12.15 060 (СВ) 1500 м  снег{туман}  10/10 100 м 
[Ns]
-8 -9.3 90 -13  1021.5  -0.5  723  301  -8    13  10  равномерный
сухой снег
100% 
06 30.12.15 060 (СВ) 1200 м  снег  10/10 100 м 
[Ns]
-8 -9.3 90 -12  1022.1  0.6  724  301  -8.2         
09 30.12.15 050 (СВ) 3000 м  слаб. снег  10/10 200 м 
[Ns]
-7.7 -9 90 -12  1021.5  -0.6  723  301           
12 30.12.15 040 (СВ) 1000 м  снег  10/10 100 м 
[Ns]
-7.9 -9.2 90 -13  1021.2  -0.3  723  301           
15 30.12.15 040 (СВ) 5{10}  1300 м  снег  10/10 100 м 
[Ns]
-8.6 -10 90 -13  1022.7  1.3  724  302    -7.6  10     
18 30.12.15 030 (СВ) 1100 м  снег  10/10 100 м 
[Ns]
-9.6 -11 90 -14  1023.8  0.8  724  304           
21 30.12.15 030 (СВ) 3000 м  слаб. снег  10/10 200 м 
[Ns]
-9.8 -11.3 89 -14  1024.1  0.3  725  304           
00 31.12.15 030 (СВ) 2300 м  снег  10/10 200 м 
[Ns]
-10.4 -11.9 89 -14  1024.4  -0.1  725  305           
03 31.12.15 030 (СВ) 4000 м  слаб. снег  10/10 200 м 
[Ns]
-11 -12.6 88 -14  1024.2  -0.3  725  305  -11    21  равномерный
сухой снег
100% 
06 31.12.15 040 (СВ) 4000 м  слаб. снег  10/10 200 м 
[Ns]
-11.3 -13 87 -14  1024.6  0.3  725  306  -12         
09 31.12.15 050 (СВ) 4000 м  слаб. снег  10/3 300 м средняя 
[St|As trans]
-11.4 -13 88 -16  1023.9  -0.6  724  306           
12 31.12.15 050 (СВ) 10 км  слаб. снег  10/3 300 м средняя 
[St|As trans]
-11.6 -13.3 87 -16  1023.9  0.1  724  306           
15 31.12.15 060 (СВ) 10 км  слаб. снег  10/3 300 м средняя 
[St|As trans]
-14.4 -16.4 85 -17  1024.9  0.3  724  309    -10.9     
18 31.12.15 080 (В) 4000 м  слаб. снег  10/4 100 м средняя 
[St|As trans]
-14.9 -16.9 85 -17  1025  724  310           
21 31.12.15 060 (СВ) 4000 м  слаб. снег  10/4 100 м средняя 
[St|As trans]
-15.1 -17 85 -17  1025.5  -0.8  724  310           
00 01.01.16 070 (В) 4000 м    10/3 200 м средняя 
[St|As trans]
-14.1 -15.4 90 -14  1024  724  309           
03 01.01.16 тихо ()   4000 м  слаб. снег  10/5 200 м средняя 
[St|As op]
-14.4 -15.7 90 -14  1024.2  0.2  724  309  -15.7    0.3  25  равномерный
сухой снег
100% 
Время (UTC), дата Ветер
(°,м/с) 
Видим.   Явления Облачность Т
(°С)
Тd
(°С)
f(%) Тe
(°С)
Pmin
(гПа)
dP
(гПа)
Po
(мм)
O2
(г/м3)
Тmin Tmax R s Состояние
почвы